MDT,Max TemperatureF,Mean TemperatureF,Min TemperatureF,Max Dew PointF,MeanDew PointF,Min DewpointF,Max Humidity, Mean Humidity, Min Humidity, Max Sea Level PressureIn, Mean Sea Level PressureIn, Min Sea Level PressureIn, Max VisibilityMiles, Mean VisibilityMiles, Min VisibilityMiles, Max Wind SpeedMPH, Mean Wind SpeedMPH, Max Gust SpeedMPH,PrecipitationIn, CloudCover, Events, WindDirDegrees
2012-10-1,72,56,42,38,34,29,76,46,25,30.30,30.14,29.88,10,10,10,14,8,20,0.00,0,,231
2012-10-2,81,67,54,29,27,24,38,26,13,29.85,29.74,29.67,10,10,10,12,7,,0.00,0,,263
2012-10-3,57,43,32,34,30,26,92,76,38,30.44,30.12,29.67,10,8,1,38,19,53,0.00,5,Snow,338
2012-10-4,39,34,30,30,28,25,100,84,57,30.45,30.36,30.29,10,7,2,16,7,25,0.03,8,Snow,2
2012-10-5,36,31,26,30,28,25,100,91,70,30.45,30.34,30.29,10,3,0,20,4,26,0.26,8,Fog-Snow,347
2012-10-6,37,28,19,26,21,11,100,81,34,30.48,30.38,30.26,10,10,10,12,8,24,0.01,3,,261
2012-10-7,53,42,30,29,24,18,76,52,32,30.23,30.07,29.90,10,10,10,14,4,,0.00,2,,241
2012-10-8,53,45,36,38,31,21,93,61,34,29.99,29.90,29.84,10,10,10,20,9,28,0.01,4,Rain,333
2012-10-9,46,38,30,34,30,25,100,83,51,30.17,30.09,29.99,10,8,2,23,13,32,0.03,6,Rain-Snow,337
2012-10-10,66,50,35,34,28,24,67,46,23,30.14,29.97,29.85,10,10,10,10,7,,0.00,0,,249
2012-10-11,44,40,35,34,33,31,93,80,65,30.23,30.16,30.01,10,9,2,17,8,23,0.00,6,,94
2012-10-12,78,54,33,37,32,29,89,52,19,30.07,29.83,29.68,10,10,10,20,10,,0.00,0,,152
2012-10-13,63,54,45,38,31,27,65,42,28,30.06,29.85,29.67,10,10,10,21,12,34,0.00,2,,327
2012-10-14,64,51,39,31,29,26,65,44,28,30.17,30.08,29.93,10,10,10,8,4,,0.00,0,,216
2012-10-15,64,54,45,44,30,21,82,42,20,29.91,29.81,29.72,10,10,10,18,6,25,0.01,2,Rain,283
2012-10-16,70,52,39,45,36,17,93,66,33,29.82,29.55,29.32,10,10,10,34,10,56,0.07,4,Rain-Thunderstorm,303
2012-10-17,46,40,36,23,17,13,59,39,28,30.06,29.86,29.65,10,10,10,34,26,51,0.00,5,,330
2012-10-18,51,43,30,19,16,13,57,39,26,30.17,30.13,30.06,10,10,10,34,25,47,0.00,0,Snow,330
2012-10-19,68,49,32,27,24,18,56,34,21,30.08,29.82,29.60,10,10,10,14,4,,0.00,1,,188
2012-10-20,70,57,43,39,31,25,86,40,21,29.70,29.57,29.48,10,10,10,22,9,30,0.00,1,,308
2012-10-21,44,40,37,40,37,33,100,91,76,29.92,29.88,29.72,10,6,1,21,10,28,0.03,7,Rain,106
2012-10-22,50,42,36,45,40,33,100,89,82,29.88,29.72,29.56,10,9,0,21,10,28,0.04,5,Fog-Rain,163
2012-10-23,46,42,37,41,37,36,100,91,76,29.86,29.75,29.53,10,7,0,21,9,28,0.13,7,Fog-Rain,20
2012-10-24,37,31,24,36,27,19,96,89,72,30.21,30.02,29.87,10,6,0,18,8,23,0.00,6,Fog-Snow,352
2012-10-25,27,24,21,25,22,19,93,88,78,30.47,30.26,30.14,10,4,0,12,6,22,0.04,8,Fog-Snow,3
2012-10-26,36,24,12,23,17,10,93,76,52,30.51,30.34,30.15,10,9,2,12,5,,0.01,3,,223
2012-10-27,42,35,28,22,18,14,66,52,38,30.14,30.10,30.04,10,10,10,9,4,,0.00,6,,231
2012-10-28,61,44,28,32,26,19,72,54,32,30.05,29.95,29.85,10,10,10,10,5,,0.00,2,,189
2012-10-29,62,52,42,35,31,28,60,47,32,30.01,29.94,29.89,10,9,2,9,5,,0.00,2,,245
2012-10-30,60,50,41,36,31,27,66,50,35,30.08,30.03,29.96,10,10,10,9,5,,0.00,0,,236
2012-10-31,66,56,45,31,28,26,52,37,24,30.06,29.99,29.89,10,10,10,12,7,,0.00,0,,213